Regional Weather Roundup
Issued by NWS

Home | Current Version | Previous Version | Text Only | Print | Product List | Glossary Off
Versions: 1 2 3 4 5 6 7 8 9 10 11 12 13 14 15 16 17 18 19 20 21 22 23 24 25 26 27 28 29 30 31 32 33 34 35 36 37 38 39 40 41 42 43 44 45 46 47 48 49 50

000
ASUS43 KOAX 211610
RWRNE

WEATHER ROUNDUP FOR NEBRASKA
NATIONAL WEATHER SERVICE OMAHA NE
1100 AM CDT FRI JUL 21 2017

NOTES: SATELLITE DATA IS BEING USED TO AUGMENT CLOUD COVER ABOVE
       12000 FEET.
       "FAIR" INDICATES FEW OR NO CLOUDS BELOW 12,000 FEET WITH NO
       SIGNIFICANT WEATHER AND/OR OBSTRUCTIONS TO VISIBILITY.


NEZ001>004-019>022-054>056-211700-
NEBRASKA PANHANDLE

CITY           SKY/WX    TMP DP  RH WIND       PRES   REMARKS
SCOTTSBLUFF    SUNNY     82  59  45 W8        30.01R
ALLIANCE       SUNNY     82  59  45 W8        29.99S
CHADRON        SUNNY     86  55  34 W17G24    29.93S
GORDON         FAIR      81  64  56 SW12      29.94S
KIMBALL        SUNNY     87  52  29 NW13      30.08S
SIDNEY         SUNNY     87  54  32 NW10      30.04F
$$

NEZ057>060-069>072-079>082-211700-
SOUTHWEST NEBRASKA

CITY           SKY/WX    TMP DP  RH WIND       PRES   REMARKS
NORTH PLATTE   SUNNY     87  75  67 W7        29.89S HX  96
IMPERIAL       SUNNY     92  56  29 VRB7      29.95R HX  90
LEXINGTON      SUNNY     84  69  60 CALM      29.86F
MCCOOK         SUNNY     91  69  48 VRB6      29.87F HX  96
OGALLALA       SUNNY     91  56  31 NW9       29.95S
$$

NEZ005>010-023>029-035>040-094-211700-
NORTH CENTRAL NEBRASKA

CITY           SKY/WX    TMP DP  RH WIND       PRES   REMARKS
VALENTINE      PTSUNNY   87  69  54 SW8       29.85S HX  91
AINSWORTH      SUNNY     85  75  70 SW7       29.85S HX  94
BROKEN BOW     SUNNY     87  74  64 W5        29.85F HX  95
O`NEILL        MOSUNNY   83  68  60 S6        29.81S
ORD            SUNNY     87  68  52 VRB5      29.81S HX  90
THEDFORD       SUNNY     85  72  66 W9        29.89F HX  91
$$

NEZ041-046>049-061>064-073>077-083>087-211700-
SOUTH CENTRAL NEBRASKA

CITY           SKY/WX    TMP DP  RH WIND       PRES   REMARKS
GRAND ISLAND   SUNNY     87  67  51 SW17G25   29.82F HX  90
AURORA         SUNNY     85  67  55 SW14G22   29.83S
HASTINGS       SUNNY     85  66  53 SW12G17   29.86R
HEBRON         SUNNY     90  68  48 SW16G24   29.85R HX  93
HOLDREGE       SUNNY     83  63  50 SW8       29.87R
KEARNEY        SUNNY     85  65  51 SW12      29.85F
YORK           SUNNY     84  72  65 SW12      29.83F
$$

NEZ011>018-030>034-042>045-211700-
NORTHEAST NEBRASKA

CITY           SKY/WX    TMP DP  RH WIND       PRES   REMARKS
NORFOLK        MOSUNNY   85  65  51 SW8       29.80F
ALBION         SUNNY     88  67  51 S8        29.81F HX  91
BLAIR          SUNNY     90  71  54 S10G17    29.83R HX  96
COLUMBUS       SUNNY     88  69  53 SW12      29.82R HX  92
FREMONT        SUNNY     89  69  52 S8        29.82R HX  94
TEKAMAH        MOSUNNY   87  72  60 W3        29.81S HX  93
WAYNE          PTSUNNY   87  71  58 E8        29.81F HX  92
$$

NEZ050>053-065>068-078-088>093-211700-
SOUTHEAST NEBRASKA

CITY           SKY/WX    TMP DP  RH WIND       PRES   REMARKS
LINCOLN        SUNNY     91  70  49 S14       29.81F HX  96
OMAHA EPPLEY   MOSUNNY   93  70  46 S15G22    29.80F HX  99
BEATRICE       SUNNY     93  71  48 S16G22    29.84F HX  99
FALLS CITY     SUNNY     91  73  55 S13       29.87F HX  99
NEBRASKA CITY  SUNNY     88  77  68 SW14G23   29.85F HX 100
PLATTSMOUTH    SUNNY     88  73  61 S17       29.83F HX  96
$$

NEZ044-045-051>053-067-211700-
OMAHA AREA

CITY           SKY/WX    TMP DP  RH WIND       PRES   REMARKS
OMAHA EPPLEY   MOSUNNY   93  70  46 S15G22    29.80F HX  99
BLAIR          SUNNY     90  71  54 S10G17    29.83R HX  96
FREMONT        SUNNY     89  69  52 S8        29.82R HX  94
MILLARD        SUNNY     93  73  53 S9        29.81S HX 102
OFFUTT AFB     SUNNY     90  73  56 S14       29.80F HX  98
PLATTSMOUTH    SUNNY     88  73  61 S17       29.83F HX  96
WAHOO          FAIR      89  69  50 SW15      29.82R HX  94
$$




USA.gov is the U.S. government's official web portal to all federal, state and local government web resources and services.